RH
98 100 94 86 91 96 97 83 91 99 91 80 76 70 67 65 66 66 62 55 52 62 65 54 50 49 46 43 52 58 65 67 67 68 62 55 53 44 42 46 67 73 81 84 72 75 79 41 43 46 49 46 44 48
98 98 98 92 89 92 98 97 98 98 100 89 80 79 76 73 71 69 66 62 55 51 66 60 57 54 53 53 50 53 58 50 51 67 60 54 55 49 44 49 38 59 52 61 59 63 42 41 44 48 42 44 51 51
100 100 100 90 88 90 93 97 96 96 96 99 94 83 82 82 78 75 72 67 60 58 67 66 64 59 62 58 56 56 59 52 52 56 58 63 62 56 64 61 47 42 34 52 46 37 48 45 47 45 47 49 48 46
100 100 100 94 84 88 90 93 94 93 93 97 99 97 91 90 85 83 76 67 63 60 78 72 66 68 66 66 67 64 65 60 61 59 66 74 72 50 61 58 58 50 44 50 50 41 42 44 47 47 44 42 35 30
99 100 100 99 91 86 88 89 90 95 98 89 98 99 100 98 93 86 76 70 64 67 96 83 73 69 70 66 66 72 72 70 72 75 88 88 65 65 58 71 77 50 55 62 62 46 46 48 48 46 43 38 28 24
98 100 99 100 98 91 90 88 87 92 98 88 91 97 97 96 96 85 72 73 72 72 63 97 81 78 78 78 76 76 76 80 76 73 74 68 74 71 89 87 52 45 46 46 50 50 50 53 54 44 41 28 25 22
67 97 99 100 100 96 94 91 88 92 98 93 95 98 98 95 96 84 76 70 71 70 69 88 97 91 89 87 87 87 86 87 85 80 80 77 72 70 91 92 53 50 51 54 56 54 55 54 44 32 29 23 21 20
46 99 99 100 100 99 97 92 91 92 96 91 93 99 100 100 99 89 80 72 69 67 57 98 96 87 90 89 91 89 94 93 90 92 91 88 84 84 98 73 58 55 56 59 57 56 46 46 35 32 25 21 18 16
39 72 100 100 100 100 97 94 94 93 99 98 99 100 100 100 100 93 89 85 79 68 94 90 97 97 89 90 87 87 91 87 90 96 95 92 90 97 79 70 66 62 61 55 46 42 36 31 32 28 20 19 18 14
38 70 100 100 97 100 99 99 96 98 100 100 100 99 100 100 100 98 98 95 90 89 90 98 85 97 85 90 88 88 86 88 97 82 90 99 90 67 63 63 66 66 66 44 42 43 35 27 23 22 20 18 18 18
44 74 94 100 99 100 99 100 99 100 100 100 100 99 99 99 98 98 99 98 97 97 92 92 92 93 85 92 90 82 89 92 94 94 96 91 90 66 58 61 62 68 63 44 38 32 25 22 22 21 19 18 18 18
87 97 99 93 99 100 100 100 100 100 98 98 98 99 99 98 98 98 97 96 95 89 85 93 92 88 85 83 84 88 92 82 90 89 94 80 86 65 66 70 64 56 48 36 26 23 20 20 22 26 27 26 23 23
98 92 93 99 100 99 100 100 100 100 99 100 99 98 98 99 98 97 98 93 95 77 95 98 96 87 85 91 86 93 98 91 83 94 79 86 64 63 65 69 58 47 38 29 22 24 25 28 30 32 32 28 27 27
100 100 100 99 100 100 100 100 98 98 100 99 98 97 97 97 95 95 88 92 82 82 89 85 96 93 98 99 92 98 87 88 96 97 88 92 65 68 66 68 53 52 29 42 47 44 42 39 37 34 30 28 31 31
100 100 100 100 100 100 100 100 100 100 98 98 98 97 97 98 89 87 78 85 96 93 92 97 95 91 97 98 93 93 99 96 90 88 93 56 59 63 55 62 72 56 41 42 52 51 44 35 34 31 31 32 32 33
100 100 100 100 100 100 100 100 100 98 97 97 97 96 90 88 98 94 92 99 98 98 91 92 93 97 94 94 97 94 93 91 87 90 63 52 51 48 40 37 38 38 37 40 52 57 39 28 29 33 44 45 39 39
96 98 99 99 99 98 98 96 95 96 98 97 97 96 90 89 89 90 88 93 97 97 99 91 98 89 94 97 97 90 96 92 72 66 46 46 50 49 48 50 45 39 39 40 36 28 36 43 45 49 46 35 38 43
98 99 98 98 92 95 95 94 94 96 97 93 96 92 87 89 79 82 82 78 92 96 93 91 91 98 99 96 93 87 67 56 51 50 52 50 45 47 46 44 42 43 45 47 49 52 54 54 53 46 47 44 56 53
98 98 98 97 90 83 94 96 96 96 98 96 94 88 83 79 68 63 57 58 79 92 96 97 100 98 93 69 61 51 48 47 49 47 48 47 46 45 44 43 44 47 49 51 54 55 54 58 62 64 67 66 69 55
95 98 98 96 86 85 95 98 94 88 96 99 94 86 79 79 61 56 62 68 71 84 99 94 90 61 58 52 47 41 42 47 47 47 49 47 47 47 48 49 52 54 57 59 58 58 66 66 65 70 74 76 76 72
99 99 100 98 95 88 84 93 100 98 94 98 99 90 90 76 71 68 62 67 97 96 96 73 58 47 32 26 38 47 48 48 53 55 55 56 53 57 58 51 50 57 63 62 61 63 66 64 68 71 74 74 75 76
92 89 94 89 93 89 94 94 99 98 96 100 91 90 94 89 76 65 75 84 93 62 59 43 39 39 46 51 48 45 47 48 51 56 55 53 58 54 41 41 51 51 48 44 50 62 54 50 59 64 70 65 67 58
82 83 83 90 84 90 99 100 97 100 93 97 99 99 99 94 75 69 75 69 48 38 31 35 35 35 44 38 42 41 35 39 45 36 33 34 39 37 37 35 35 40 42 39 40 46 49 44 50 53 58 60 60 55
74 77 79 84 90 97 96 98 96 96 98 95 98 99 95 86 78 84 100 65 40 34 38 35 40 44 44 45 48 32 25 30 34 33 31 37 42 41 45 49 50 49 53 59 57 55 62 59 54 60 60 57 50 49
64 89 79 100 95 92 98 100 96 87 100 98 93 99 94 81 100 100 98 45 36 37 33 31 36 42 47 36 30 28 30 34 41 42 43 51 55 56 57 58 61 63 67 74 73 74 72 72 74 72 63 62 63 61
87 81 92 90 97 94 93 100 100 96 96 100 97 82 79 99 100 90 84 29 27 26 26 27 28 30 31 32 34 36 40 47 55 58 56 58 62 65 65 67 72 70 74 79 80 82 84 84 84 83 81 80 77 79
96 88 90 91 86 86 85 81 78 92 100 99 96 100 99 99 93 73 29 26 27 28 32 36 40 43 44 46 48 52 56 61 65 67 68 71 74 76 80 82 82 76 75 82 88 93 96 96 97 99 97 91 87 88
80 74 94 88 94 86 94 97 98 97 93 70 78 98 93 87 76 27 26 28 33 38 44 47 50 55 62 66 68 72 74 74 76 79 83 78 72 67 59 60 62 66 71 72 76 80 83 86 89 93 96 97 94 83
98 83 80 100 100 99 94 91 87 62 51 57 88 88 72 34 31 34 36 40 44 51 55 53 53 58 70 72 72 68 72 74 84 88 80 75 67 58 62 68 73 70 64 68 72 78 81 82 84 86 92 91 82 79
94 89 81 91 98 97 64 61 54 43 45 46 46 47 48 46 45 50 53 54 59 57 53 54 50 55 57 58 58 58 64 71 78 88 85 82 81 76 70 69 68 68 72 79 78 75 72 74 79 82 84 83 82 81
84 96 90 90 92 58 56 53 54 57 60 61 61 71 67 60 59 43 48 48 47 40 42 45 49 51 55 57 62 67 66 68 81 85 86 86 89 93 92 90 94 98 99 99 98 86 78 77 79 80 81 81 82 85
92 95 99 100 84 66 66 65 62 61 59 62 67 66 70 77 78 62 37 37 38 42 46 52 54 56 62 71 78 89 96 93 93 94 95 96 97 94 90 88 88 88 88 90 92 76 81 84 80 84 90 88 87 99
100 100 100 99 86 77 70 72 69 72 68 67 54 51 56 64 64 45 40 37 40 46 52 58 63 67 74 84 91 94 95 94 91 92 97 100 97 96 100 92 87 94 92 89 82 69 68 74 82 90 96 100 100 99
Wind_Speed
30 28 25 23 24 23 19 20 18 15 15 13 12 9 7 6 6 7 6 5 3 2 6 6 5 3 4 4 2 7 4 2 3 2 3 3 1 3 1 4 6 6 6 4 4 5 8 8 4 5 6 10 7 5
32 32 29 27 25 25 22 19 21 17 15 15 14 11 9 7 6 6 7 7 6 5 5 6 9 10 9 4 4 10 2 2 5 2 1 1 1 2 3 3 2 4 5 4 8 5 5 13 4 8 7 6 4 4
35 34 33 30 28 26 25 21 23 20 17 14 14 14 11 9 7 7 8 8 9 5 6 6 9 12 14 12 10 5 5 6 3 3 3 1 4 2 4 5 5 4 4 2 2 2 12 14 11 8 5 6 5 3
39 35 35 33 30 27 26 22 24 22 19 17 15 13 12 10 9 9 9 8 7 4 4 3 6 7 6 12 15 17 6 4 4 3 2 2 3 1 2 2 3 4 6 5 5 6 6 7 13 10 7 6 4 2
42 41 37 36 34 30 27 23 26 25 22 19 18 15 12 11 10 10 10 10 7 6 2 4 8 8 8 7 7 11 15 9 3 2 3 3 3 1 3 2 4 11 6 5 5 2 3 10 14 10 8 6 3 0
44 42 40 40 38 35 31 26 26 27 23 22 20 18 14 11 10 8 4 3 2 5 2 2 4 4 3 4 7 9 8 10 6 4 4 5 3 2 2 4 5 11 18 15 0 7 7 13 11 9 8 5 2 4
47 47 43 40 40 39 35 30 28 28 24 22 21 19 17 15 13 9 4 1 3 3 2 5 2 2 1 3 3 3 7 5 5 4 5 2 4 5 2 4 8 12 13 10 8 7 8 12 8 11 8 3 2 5
48 50 47 41 39 42 36 30 29 30 26 23 23 23 24 22 17 15 16 10 5 3 3 1 3 2 5 2 1 3 3 4 4 3 2 3 3 4 5 10 17 13 12 11 10 10 6 14 14 9 4 3 6 10
48 50 46 43 36 42 38 34 31 31 27 27 26 20 18 16 11 11 11 12 9 7 2 3 2 1 6 3 2 3 4 2 2 3 3 3 3 7 7 12 13 12 15 12 12 12 14 14 11 7 5 7 11 15
45 46 48 44 36 41 37 35 31 31 30 24 31 12 7 8 10 9 5 4 4 5 6 5 5 3 7 6 4 4 2 1 2 3 3 3 5 24 20 15 12 12 14 16 20 15 11 8 5 5 9 12 15 18
41 42 42 39 33 38 35 33 34 34 32 35 13 7 11 17 12 6 4 2 4 3 8 7 14 4 8 3 3 6 2 2 2 2 2 2 3 4 9 17 18 13 17 17 14 11 7 3 6 10 14 17 21 24
41 40 35 36 31 40 36 37 38 40 31 30 17 21 18 7 3 3 4 5 4 4 8 6 6 5 6 4 3 4 2 2 4 7 2 4 3 10 8 7 12 16 18 15 9 3 2 7 11 16 21 25 27 29
36 38 42 33 38 37 37 37 36 42 34 29 8 9 8 6 5 6 8 4 3 6 9 9 4 6 4 4 2 3 4 4 4 2 3 4 8 10 4 9 13 16 14 7 2 5 8 12 17 22 27 29 31 34
30 32 41 35 35 33 37 49 45 34 22 7 8 6 6 5 4 3 2 3 3 6 17 14 7 4 4 3 3 3 2 3 3 3 4 2 15 3 2 8 16 13 8 3 12 16 18 23 30 32 31 32 33 35
26 28 31 32 33 40 47 49 48 41 7 5 5 4 2 4 3 4 4 5 6 14 18 9 5 5 3 3 3 2 3 4 4 4 2 6 13 6 3 1 11 15 13 19 24 25 29 38 40 40 36 34 35 38
49 47 41 50 53 45 44 45 38 14 6 4 4 4 4 3 3 5 7 6 12 16 10 3 3 3 4 3 4 6 3 5 3 2 6 2 15 11 8 7 10 16 23 30 34 33 41 42 39 39 39 40 39 43
32 33 30 32 28 25 22 23 11 7 5 4 3 6 6 3 5 6 8 6 13 15 2 3 3 5 1 3 3 3 3 2 2 5 7 17 21 16 13 13 17 22 25 29 34 36 37 37 38 40 41 40 39 40
30 27 27 28 28 25 16 10 6 5 4 4 4 5 5 4 9 7 7 11 12 7 6 4 2 3 4 4 3 3 4 5 12 18 19 18 19 19 24 26 28 28 30 32 34 37 39 40 41 43 42 40 39 40
21 20 18 18 19 13 5 3 4 4 4 6 5 9 8 3 8 6 7 7 11 9 4 3 3 3 3 5 3 12 17 19 21 25 26 26 25 26 29 32 33 33 33 34 35 38 41 42 43 43 42 40 37 36
14 13 12 12 14 5 5 4 5 5 3 4 6 6 3 3 5 8 10 10 13 7 6 4 3 6 12 22 26 33 33 27 25 25 25 28 30 31 32 32 32 33 34 36 39 40 37 39 40 39 38 37 38 40
18 15 8 7 7 7 5 4 4 4 4 3 3 4 1 4 6 8 13 13 8 5 4 9 19 27 34 38 35 30 32 32 30 29 31 32 34 30 31 37 36 33 32 34 36 37 34 38 38 35 35 38 36 38
9 6 6 5 5 4 4 4 7 6 3 3 3 3 1 3 6 10 7 8 7 14 18 30 36 35 36 34 33 33 33 33 32 30 33 35 34 36 36 35 32 33 33 34 35 35 35 35 34 34 34 35 34 32
9 6 4 3 3 3 4 6 3 3 2 4 2 0 3 4 5 7 6 7 10 22 29 33 35 35 37 38 38 38 35 36 34 32 29 30 28 29 31 34 35 37 39 40 37 37 37 36 33 31 32 32 31 32
9 4 3 3 3 3 5 3 4 4 3 3 3 3 3 6 5 4 4 7 27 33 33 34 33 34 34 33 32 29 27 27 29 31 35 36 36 39 37 36 37 40 41 38 37 38 39 39 37 35 33 31 29 30
4 2 3 2 3 4 2 2 4 4 3 3 4 4 3 4 1 3 4 19 30 28 30 27 26 26 28 30 31 33 35 35 33 35 43 35 33 36 40 41 42 43 40 35 38 38 40 39 38 35 32 33 32 31
2 5 7 9 4 5 5 4 4 6 3 3 6 4 2 2 0 6 5 15 18 19 18 18 21 26 31 33 38 41 44 37 32 34 41 38 35 35 39 40 40 47 38 32 33 35 37 37 38 39 38 37 35 33
2 4 5 6 5 5 3 2 4 3 4 6 3 4 3 3 7 7 13 16 17 20 24 26 28 31 36 41 42 41 39 37 35 37 39 39 39 38 35 38 41 44 42 38 36 36 37 38 39 39 39 39 38 37
6 10 7 11 7 8 4 4 5 6 5 7 6 4 7 8 6 19 27 32 33 35 35 38 40 41 38 37 37 37 37 35 34 32 32 31 28 25 24 25 23 22 21 21 23 24 25 27 28 30 31 34 34 28
6 7 12 4 4 5 9 9 7 10 10 13 6 4 9 28 35 38 44 45 45 44 44 45 40 32 30 30 29 27 25 23 25 27 28 30 30 27 22 23 24 24 24 24 22 23 24 24 25 25 24 25 27 27
8 14 9 9 6 7 13 17 15 21 21 25 29 31 37 47 49 41 42 43 43 42 35 29 27 26 26 24 23 21 20 21 19 19 24 28 29 28 28 28 28 26 25 26 27 27 23 23 23 22 22 23 24 24
7 15 6 10 8 19 24 25 27 28 31 35 36 32 43 48 45 43 36 32 23 16 19 21 21 19 18 18 18 17 21 19 15 18 22 27 29 29 27 26 26 25 26 26 27 25 22 21 20 20 21 21 21 22
10 12 8 4 8 15 15 14 18 22 29 27 29 29 30 19 13 23 20 12 12 16 13 11 14 15 15 17 15 12 16 23 25 26 30 32 32 34 33 31 29 27 26 26 24 21 19 19 19 19 19 20 21 22
4 4 4 5 4 4 6 5 4 7 9 10 16 22 20 12 8 8 12 14 12 9 10 13 15 18 18 18 20 25 29 29 30 30 30 32 34 32 30 30 27 25 23 23 20 19 18 17 18 18 19 19 17 16
Wind_Direction
245 245 248 252 247 252 260 238 239 252 247 233 239 250 266 280 308 325 321 341 333 228 277 239 236 216 191 200 184 136 123 205 158 210 210 238 236 200 248 149 172 170 162 189 189 207 254 151 128 191 152 146 174 205
243 246 244 246 245 245 246 249 232 237 247 237 235 243 253 265 286 307 309 324 320 272 259 266 246 236 222 203 158 172 181 145 193 203 274 56 237 180 248 255 207 218 197 187 188 217 137 180 153 142 156 170 186 182
244 245 240 241 241 240 243 251 226 228 234 242 243 240 244 259 275 290 303 316 323 304 283 262 241 237 232 228 221 208 211 198 196 202 342 308 242 131 202 227 192 238 212 209 39 245 179 177 173 177 172 176 169 183
239 244 238 237 237 235 238 245 227 221 228 234 243 244 244 256 270 289 298 310 314 292 288 260 260 247 236 233 229 223 220 200 209 203 219 240 234 276 268 248 221 193 137 193 250 260 150 183 188 185 176 185 180 166
236 233 234 234 233 231 231 235 224 225 225 225 233 238 246 258 273 287 293 294 280 239 275 302 282 265 245 233 225 219 224 225 179 195 201 221 266 244 237 6 250 190 188 183 234 151 151 170 185 188 185 177 161 74
228 229 229 235 230 227 228 225 222 226 228 226 225 230 238 252 265 285 311 324 201 181 275 295 273 267 265 237 232 223 209 212 202 204 218 237 218 206 255 246 241 213 218 227 262 150 142 163 181 177 167 163 187 319
229 226 224 226 233 223 222 220 220 219 226 225 224 225 230 236 239 225 226 232 206 344 347 313 275 303 217 200 192 204 192 192 198 233 237 238 190 209 246 241 207 207 210 227 215 187 130 172 177 163 168 184 279 316
228 221 222 226 230 221 218 215 220 217 220 218 219 227 230 226 225 227 236 249 246 272 266 267 269 289 194 172 193 162 157 181 217 255 259 230 199 218 250 247 249 251 205 193 208 207 229 175 163 171 201 281 313 326
225 221 220 225 225 222 214 211 217 215 217 226 223 213 195 209 208 220 225 225 229 226 195 218 232 247 168 172 140 161 175 204 215 249 234 190 197 227 234 249 246 203 187 188 194 181 168 168 180 210 257 307 311 320
222 217 217 222 219 220 211 212 213 214 221 222 181 162 175 179 185 192 176 175 180 191 219 237 208 205 172 178 166 139 185 269 237 204 201 233 253 257 257 254 246 220 211 189 169 172 176 186 219 270 299 307 309 312
213 209 213 214 216 212 207 209 207 209 215 181 166 143 140 155 156 152 146 155 178 222 216 225 199 154 189 159 167 204 167 177 255 212 179 258 263 302 310 252 234 217 198 191 190 186 192 247 296 310 315 315 312 308
203 211 212 212 225 205 202 201 204 202 201 190 182 141 141 152 153 169 180 163 216 233 182 178 186 165 164 174 159 181 208 171 248 141 235 253 268 336 318 179 176 178 175 171 172 197 296 322 326 323 319 313 305 302
210 207 218 217 212 195 200 201 200 201 190 171 146 143 146 162 187 194 177 208 210 190 173 155 132 154 141 176 169 153 209 220 130 214 236 235 345 330 278 173 171 173 173 169 78 358 334 329 327 320 314 310 306 298
209 213 207 187 188 196 189 180 188 199 173 139 143 145 205 169 219 186 183 142 168 177 157 152 121 129 151 183 192 222 170 139 237 229 233 273 338 334 320 205 189 183 180 201 334 333 329 321 318 315 310 306 301 296
181 183 190 191 194 186 180 184 186 179 132 113 137 157 160 109 143 153 159 146 132 156 150 119 106 155 160 212 207 219 190 233 220 228 173 38 55 60 34 106 205 217 252 293 307 318 317 315 311 308 308 310 308 301
123 134 128 141 146 145 158 167 161 136 83 98 100 110 93 125 144 160 169 158 153 157 147 134 138 186 197 214 189 213 219 208 239 194 162 77 354 352 347 325 303 291 291 286 285 292 299 301 303 307 307 302 302 304
115 105 119 121 129 126 120 127 91 57 79 84 95 115 151 137 147 162 169 159 160 153 163 116 212 224 54 217 220 199 218 209 99 189 233 303 321 324 321 306 302 292 282 278 280 289 295 301 305 306 304 304 306 304
106 117 123 131 133 134 115 76 84 82 88 112 130 157 145 116 155 157 170 172 159 177 154 201 216 214 212 192 230 227 229 275 294 298 303 307 310 308 307 299 293 291 290 291 293 296 297 298 299 299 302 304 306 305
116 120 132 135 130 104 85 78 75 97 87 136 140 173 188 187 193 176 183 189 193 192 187 203 230 200 227 228 284 306 298 295 296 299 296 297 298 297 292 291 291 291 291 292 293 292 294 295 293 296 297 300 297 299
102 136 151 148 154 79 82 72 90 78 99 133 148 166 164 187 203 230 236 231 219 210 208 222 225 267 281 278 281 283 286 292 296 296 295 291 287 284 284 287 289 291 291 290 290 292 290 292 294 294 294 294 292 294
127 139 143 131 88 72 74 100 77 96 127 106 161 141 212 259 253 250 253 247 202 213 231 243 261 267 277 280 277 280 283 285 284 281 281 284 286 288 289 290 292 294 293 294 294 294 293 291 292 290 288 288 290 293
134 132 89 81 68 94 94 112 125 118 86 92 107 162 225 271 254 254 247 214 220 240 243 259 264 268 270 273 279 282 284 285 283 283 282 283 280 287 291 293 294 291 293 294 295 293 297 299 301 301 298 299 299 296
137 130 92 80 83 81 88 125 91 122 115 146 153 116 242 233 243 253 239 236 250 261 270 272 276 281 280 286 287 289 287 288 289 291 293 291 291 290 290 291 291 287 287 290 295 296 294 296 298 299 300 298 297 296
125 89 81 96 83 88 128 124 124 124 132 170 163 254 246 224 235 229 247 253 266 275 275 278 281 280 284 284 282 287 295 297 294 293 293 290 290 293 293 291 291 290 288 290 293 293 294 293 294 295 295 294 291 291
114 115 139 109 157 125 117 144 161 176 233 197 199 276 252 206 164 253 235 268 273 274 280 287 286 281 275 285 290 292 297 296 292 291 293 289 285 285 285 285 287 289 290 284 286 290 295 297 295 292 291 291 295 301
137 194 181 190 178 153 177 151 193 201 153 189 231 245 192 122 128 244 234 263 271 279 285 286 289 289 286 285 287 289 293 297 291 280 285 288 284 281 282 286 289 289 291 287 285 286 289 289 289 291 293 294 297 298
191 230 191 188 169 159 138 135 154 141 177 207 222 159 130 209 236 245 262 277 283 294 297 295 291 286 285 286 287 286 288 289 286 285 288 288 286 285 285 284 284 288 294 293 290 287 286 286 286 287 291 293 294 299
224 188 172 189 182 193 161 172 179 208 221 206 175 188 196 205 232 270 286 296 299 300 296 295 294 294 289 288 289 292 294 297 297 296 293 290 290 297 298 297 297 299 302 301 300 299 296 292 292 292 290 288 291 295
210 195 182 163 153 201 219 198 218 222 215 192 182 221 237 265 279 285 289 293 295 295 297 301 305 305 300 298 297 297 299 301 298 297 298 298 304 309 316 308 307 308 305 302 300 299 298 296 293 290 290 290 293 297
211 199 184 174 177 218 226 216 238 254 252 254 258 265 271 275 281 289 289 291 292 294 298 298 298 298 300 304 305 304 303 301 302 299 295 299 303 306 304 302 301 301 302 304 305 300 297 292 287 285 285 287 290 293
193 185 198 200 235 250 255 262 266 269 271 271 271 260 266 279 292 297 296 298 302 299 294 296 301 305 303 300 300 301 302 308 311 313 314 309 306 303 301 299 299 301 304 306 307 301 297 295 296 296 294 295 296 294
194 192 189 226 259 262 265 273 272 268 274 269 266 267 271 272 268 290 302 307 291 289 300 304 309 309 302 299 296 295 303 304 304 303 303 304 301 303 304 301 299 297 300 301 306 300 294 292 292 294 296 297 297 298
199 214 234 282 283 248 237 236 265 281 262 260 271 276 267 251 246 270 288 303 298 294 310 313 318 319 310 301 300 303 304 302 302 300 299 299 300 301 299 295 295 294 293 299 300 295 290 284 285 292 296 296 296 298